Home   Weather   Washington DC   Past weeks

Flag for USA Past Weather in Washington DC, USA — Yesterday and Last 2 Weeks

Now
50 °F

Fog.


Feels Like: 49 °F
Forecast: 47 / 56 °F
Wind: 3 mph from Northeast

Location: Reagan National Airport

Current Time: Feb 24, 2018 at 9:07:57 am

Latest Report: Feb 24, 2018 at 7:52 am


Visibility: 0 mi

Pressure: 30.17 "Hg

Humidity: 100%

Dew Point: 50 °F

Location of Washington DCLocation

Past Weather in Washington DC — Graph

°F

Washington DC Temperature Yesterday

Maximum temperature yesterday: 48 °F (at 11:16 pm)
Minimum temperature yesterday: 41 °F (at 4:39 am)
Average temperature yesterday: 44 °F

High & Low Weather Summary for the Past Weeks

 TemperatureHumidityPressure
High80 °F (Feb 21, 2:52 pm)100% (Feb 10, 1:34 pm)30.82 "Hg (Feb 10, 1:34 pm)
Low31 °F (Feb 9, 7:52 am)36% (Feb 13, 12:52 pm)29.63 "Hg (Feb 16, 1:52 am)
Average49 °F81%30.27 "Hg
* Reported Feb 9 7:52 am — Feb 24 7:52 am, Washington DC. Weather by CustomWeather, © 2018

Note: Actual official high and low records may vary slightly from our data, if they occured in-between our weather recording intervals... More about our weather records

Advertising

Washington DC Weather History for the Previous 24 Hours

Scroll right to see more
 ConditionsComfort  
Time TempWeatherWind HumidityBarometerVisibility
7:52 am
Sat, Feb 24
50 °FFog.3 mph100%30.17 "Hg0 mi
6:52 am50 °FFog.5 mph100%30.15 "Hg0 mi
6:07 am50 °FFog.5 mph100%30.15 "Hg0 mi
4:52 am49 °FFog.No wind100%30.16 "Hg0 mi
3:52 am49 °FFog.No wind100%30.18 "Hg0 mi
3:20 am49 °FFog.No wind100%30.19 "Hg0 mi
2:52 am49 °FFog.No wind100%30.19 "Hg0 mi
2:29 am49 °FFog.No wind100%30.22 "Hg0 mi
1:52 am49 °FFog.No wind97%30.23 "Hg0 mi
12:52 am48 °FFog.6 mph100%30.24 "Hg0 mi
12:41 am48 °FFog.5 mph100%30.24 "Hg1 mi
11:52 pm
Fri, Feb 23
48 °FFog.5 mph100%30.24 "Hg1 mi
11:16 pm48 °FFog.6 mph96%30.26 "Hg2 mi
10:52 pm47 °FFog.3 mph100%30.27 "Hg3 mi
10:14 pm47 °FDrizzle. Fog.6 mph100%30.29 "Hg2 mi
9:52 pm47 °FDrizzle. Fog.7 mph97%30.29 "Hg2 mi
9:40 pm47 °FDrizzle. Fog.6 mph97%30.29 "Hg2 mi
9:08 pm47 °FDrizzle. Fog.6 mph97%30.31 "Hg3 mi
8:09 pm46 °FDrizzle. Fog.7 mph100%30.32 "Hg4 mi
7:52 pm47 °FDrizzle. Fog.6 mph93%30.32 "Hg6 mi
6:52 pm47 °FOvercast.7 mph90%30.33 "Hg10 mi
5:52 pm47 °FOvercast.7 mph90%30.35 "Hg10 mi
4:52 pm47 °FOvercast.6 mph90%30.36 "Hg10 mi
3:52 pm47 °FOvercast.6 mph90%30.38 "Hg10 mi
2:52 pm46 °FOvercast.7 mph89%30.41 "Hg10 mi
2:21 pm46 °FOvercast.6 mph89%30.42 "Hg10 mi
1:52 pm46 °FLow clouds.7 mph89%30.42 "Hg10 mi
12:52 pm44 °FDrizzle. Fog.No wind93%30.49 "Hg3 mi
11:52 am43 °FDrizzle. Fog.No wind97%30.53 "Hg3 mi
11:26 am43 °FDrizzle. Fog.6 mph93%30.54 "Hg3 mi
10:52 am43 °FLow clouds.7 mph89%30.55 "Hg10 mi
9:52 am42 °FLow clouds.6 mph92%30.58 "Hg10 mi
Weather by CustomWeather, © 2018

See weather overview